When you browse on this site, cookies collect data to enhance your experience and personalize the content and advertising you see.
Visit our Privacy Policy to learn more. By continuing to use the site, you agree to this use of cookies and data.
  • In Sweden
  • List of Countries
  • For 7 days
  • Water Temperature
  • Satellite Maps
  • Weather Map
  • Weather Widgets
  • user-avatar
    Login

    Hourly Weather Banamba

    Today, 21 May, Tuesday

    Time Temperature Precipitation Wind Pressure Humidity
    00:00 +37°C° 0 mm 2 mps 724 mmHg 16%
    01:00 +37°C° 0 mm 2 mps 724 mmHg 16%
    02:00 +36°C° 0 mm 2 mps 724 mmHg 17%
    03:00 +36°C° 0 mm 2 mps 724 mmHg 17%
    04:00 +35°C° 0 mm 2 mps 724 mmHg 18%
    05:00 +33°C° 0 mm 1 mps 724 mmHg 20%
    06:00 +31°C° 0 mm 0 mps 724 mmHg 21%
    07:00 +34°C° 0 mm 1 mps 724 mmHg 19%
    08:00 +36°C° 0 mm 1 mps 725 mmHg 17%
    09:00 +38°C° 0 mm 2 mps 725 mmHg 15%
    10:00 +40°C° 0 mm 2 mps 725 mmHg 14%
    11:00 +41°C° 0 mm 2 mps 725 mmHg 13%
    12:00 +43°C° 0 mm 3 mps 725 mmHg 12%
    13:00 +43°C° 0 mm 2 mps 724 mmHg 12%
    14:00 +43°C° 0 mm 2 mps 724 mmHg 11%
    15:00 +45°C° 0 mm 2 mps 723 mmHg 11%
    16:00 +45°C° 0 mm 2 mps 723 mmHg 11%
    17:00 +43°C° 0 mm 2 mps 723 mmHg 11%
    18:00 +43°C° 0 mm 2 mps 722 mmHg 11%
    19:00 +42°C° 0 mm 2 mps 723 mmHg 12%
    20:00 +41°C° 0 mm 2 mps 723 mmHg 13%
    21:00 +40°C° 0 mm 2 mps 723 mmHg 14%
    22:00 +39°C° 0 mm 2 mps 723 mmHg 14%
    23:00 +39°C° 0 mm 2 mps 724 mmHg 15%

    Tomorrow, 22 May, Wednesday

    Time Temperature Precipitation Wind Pressure Humidity
    00:00 +38°C° 0 mm 2 mps 724 mmHg 15%
    01:00 +38°C° 0 mm 2 mps 724 mmHg 16%
    02:00 +38°C° 0 mm 2 mps 723 mmHg 16%
    03:00 +38°C° 0 mm 2 mps 723 mmHg 17%
    04:00 +37°C° 0 mm 2 mps 723 mmHg 19%
    05:00 +37°C° 0 mm 2 mps 723 mmHg 20%
    06:00 +36°C° 0 mm 2 mps 723 mmHg 22%
    07:00 +38°C° 0 mm 2 mps 724 mmHg 20%
    08:00 +39°C° 0 mm 2 mps 725 mmHg 18%
    09:00 +40°C° 0 mm 3 mps 725 mmHg 16%
    10:00 +41°C° 0 mm 2 mps 725 mmHg 16%
    11:00 +42°C° 0 mm 2 mps 725 mmHg 15%
    12:00 +43°C° 0 mm 2 mps 725 mmHg 15%
    13:00 +43°C° 0 mm 2 mps 724 mmHg 15%
    14:00 +43°C° 0 mm 2 mps 723 mmHg 15%
    15:00 +45°C° 0 mm 2 mps 723 mmHg 14%
    16:00 +44°C° 0 mm 3 mps 722 mmHg 16%
    17:00 +43°C° 0 mm 4 mps 722 mmHg 18%
    18:00 +43°C° 0 mm 5 mps 722 mmHg 19%
    19:00 +42°C° 0 mm 4 mps 722 mmHg 21%
    20:00 +40°C° 0 mm 3 mps 723 mmHg 22%
    21:00 +40°C° 0 mm 3 mps 723 mmHg 24%
    22:00 +39°C° 0 mm 3 mps 724 mmHg 25%
    23:00 +39°C° 0 mm 2 mps 724 mmHg 26%

    Day after tomorrow, 23 May, Thursday

    Time Temperature Precipitation Wind Pressure Humidity
    00:00 +38°C° 0 mm 2 mps 724 mmHg 27%
    01:00 +38°C° 0 mm 3 mps 724 mmHg 29%
    02:00 +37°C° 0 mm 3 mps 723 mmHg 30%
    03:00 +37°C° 0 mm 4 mps 723 mmHg 31%
    04:00 +36°C° 0 mm 4 mps 723 mmHg 35%
    05:00 +36°C° 0 mm 4 mps 723 mmHg 38%
    06:00 +35°C° 0 mm 5 mps 723 mmHg 41%
    07:00 +36°C° 0 mm 4 mps 724 mmHg 40%
    08:00 +37°C° 0 mm 3 mps 725 mmHg 39%
    09:00 +37°C° 0 mm 3 mps 725 mmHg 38%
    10:00 +39°C° 0 mm 3 mps 725 mmHg 35%
    11:00 +40°C° 0 mm 3 mps 725 mmHg 32%
    12:00 +42°C° 0 mm 3 mps 725 mmHg 29%
    13:00 +41°C° 0.3 mm 4 mps 724 mmHg 34%
    14:00 +39°C° 0.3 mm 6 mps 723 mmHg 38%
    15:00 +38°C° 0.3 mm 7 mps 722 mmHg 43%
    16:00 +35°C° 9.2 mm 8 mps 722 mmHg 48%
    17:00 +32°C° 9.2 mm 9 mps 723 mmHg 54%
    18:00 +29°C° 9.2 mm 11 mps 723 mmHg 59%
    19:00 +31°C° 5.3 mm 9 mps 723 mmHg 58%
    20:00 +30°C° 5.3 mm 7 mps 724 mmHg 56%
    21:00 +32°C° 5.3 mm 4 mps 725 mmHg 54%
    22:00 +32°C° 0.6 mm 4 mps 725 mmHg 52%
    23:00 +33°C° 0.6 mm 3 mps 725 mmHg 49%

    24 May, Friday

    Time Temperature Precipitation Wind Pressure Humidity
    00:00 +32°C° 0.6 mm 2 mps 725 mmHg 46%
    01:00 +33°C° 0 mm 3 mps 725 mmHg 47%
    02:00 +33°C° 0 mm 4 mps 724 mmHg 47%
    03:00 +33°C° 0 mm 5 mps 723 mmHg 47%
    04:00 +33°C° 0 mm 4 mps 723 mmHg 50%
    05:00 +31°C° 0 mm 3 mps 723 mmHg 53%
    06:00 +31°C° 0 mm 2 mps 723 mmHg 55%
    07:00 +32°C° 0 mm 2 mps 724 mmHg 50%
    08:00 +35°C° 0 mm 3 mps 724 mmHg 45%
    09:00 +36°C° 0 mm 3 mps 725 mmHg 40%
    10:00 +37°C° 0 mm 4 mps 725 mmHg 36%
    11:00 +40°C° 0 mm 4 mps 725 mmHg 31%
    12:00 +41°C° 0 mm 4 mps 725 mmHg 27%
    13:00 +41°C° 0 mm 4 mps 725 mmHg 27%
    14:00 +42°C° 0 mm 4 mps 724 mmHg 27%
    15:00 +42°C° 0 mm 4 mps 723 mmHg 27%
    16:00 +41°C° 0 mm 4 mps 723 mmHg 28%
    17:00 +40°C° 0 mm 3 mps 723 mmHg 29%
    18:00 +39°C° 0 mm 3 mps 723 mmHg 30%
    19:00 +39°C° 0 mm 3 mps 724 mmHg 32%
    20:00 +38°C° 0 mm 2 mps 724 mmHg 34%
    21:00 +37°C° 0 mm 2 mps 725 mmHg 35%
    22:00 +36°C° 0 mm 3 mps 725 mmHg 39%
    23:00 +36°C° 0 mm 3 mps 725 mmHg 42%

    25 May, Saturday

    Time Temperature Precipitation Wind Pressure Humidity
    00:00 +35°C° 0 mm 4 mps 725 mmHg 45%
    01:00 +34°C° 0 mm 3 mps 724 mmHg 46%
    02:00 +34°C° 0 mm 3 mps 724 mmHg 46%
    03:00 +34°C° 0 mm 2 mps 723 mmHg 46%
    04:00 +34°C° 0 mm 2 mps 724 mmHg 46%
    05:00 +34°C° 0 mm 2 mps 724 mmHg 46%
    06:00 +32°C° 0 mm 2 mps 724 mmHg 45%
    07:00 +35°C° 0 mm 2 mps 725 mmHg 42%
    08:00 +36°C° 0 mm 2 mps 725 mmHg 39%
    09:00 +38°C° 0 mm 3 mps 725 mmHg 36%
    10:00 +39°C° 0 mm 3 mps 725 mmHg 32%
    11:00 +40°C° 0 mm 3 mps 725 mmHg 29%
    12:00 +41°C° 0 mm 2 mps 725 mmHg 26%
    13:00 +42°C° 0 mm 2 mps 724 mmHg 24%
    14:00 +42°C° 0 mm 2 mps 723 mmHg 22%
    15:00 +43°C° 0 mm 1 mps 723 mmHg 20%
    16:00 +43°C° 0 mm 2 mps 723 mmHg 20%
    17:00 +43°C° 0 mm 2 mps 723 mmHg 20%
    18:00 +43°C° 0 mm 3 mps 723 mmHg 21%
    19:00 +43°C° 0 mm 3 mps 723 mmHg 22%
    20:00 +42°C° 0 mm 3 mps 724 mmHg 24%
    21:00 +40°C° 0 mm 3 mps 724 mmHg 26%
    22:00 +40°C° 0 mm 3 mps 724 mmHg 28%
    23:00 +40°C° 0 mm 4 mps 724 mmHg 30%

    26 May, Sunday

    Time Temperature Precipitation Wind Pressure Humidity
    00:00 +38°C° 0 mm 4 mps 724 mmHg 32%
    01:00 +37°C° 1 mm 5 mps 724 mmHg 38%
    02:00 +35°C° 1 mm 5 mps 723 mmHg 43%
    03:00 +33°C° 1 mm 6 mps 723 mmHg 49%
    04:00 +34°C° 0.2 mm 5 mps 723 mmHg 48%
    05:00 +34°C° 0.2 mm 3 mps 724 mmHg 46%
    06:00 +34°C° 0.2 mm 2 mps 724 mmHg 45%
    07:00 +35°C° 0 mm 2 mps 724 mmHg 42%
    08:00 +36°C° 0 mm 2 mps 725 mmHg 40%
    09:00 +37°C° 0 mm 2 mps 726 mmHg 38%
    10:00 +38°C° 0 mm 2 mps 725 mmHg 35%
    11:00 +39°C° 0 mm 1 mps 725 mmHg 32%
    12:00 +40°C° 0 mm 1 mps 725 mmHg 29%
    13:00 +41°C° 0 mm 1 mps 724 mmHg 27%
    14:00 +42°C° 0 mm 2 mps 723 mmHg 25%
    15:00 +42°C° 0 mm 2 mps 722 mmHg 22%
    16:00 +42°C° 0 mm 2 mps 722 mmHg 22%
    17:00 +42°C° 0 mm 2 mps 722 mmHg 21%
    18:00 +42°C° 0 mm 2 mps 722 mmHg 20%
    19:00 +42°C° 0 mm 2 mps 722 mmHg 23%
    20:00 +41°C° 0 mm 1 mps 723 mmHg 25%
    21:00 +37°C° 0 mm 0 mps 723 mmHg 27%
    22:00 +40°C° 0 mm 1 mps 723 mmHg 27%
    23:00 +39°C° 0 mm 1 mps 723 mmHg 26%
    Show more